Weather History for Bryce Canyon, UT

Change the Weather History Date:

Friday, May 4, 2012

  Actual Average Record
Temperature  
Mean Temperature 48 °F -  
Max Temperature 69 °F 61 °F 75 °F (2004)
Min Temperature 28 °F 28 °F 21 °F (1990)
Degree Days  
Heating Degree Days 17    
Moisture  
Dew Point 22 °F    
Average Humidity 36    
Maximum Humidity 75    
Minimum Humidity 13    
Precipitation  
Precipitation 0.00 in - - ()
Sea Level Pressure  
Sea Level Pressure 29.86 in    
Wind  
Wind Speed 10 mph (SSW)    
Max Wind Speed 25 mph    
Max Gust Speed 34 mph    
Visibility 10 miles    
Events      
Averages and records for this station are not official NWS values.
T = Trace of Precipitation, MM = Missing Value Source: NWS Daily Summary

Daily Weather History Graph

Daily Weather History Graph

Search for Another Location

Airport:

Trip Planner

Search our weather history database for the weather conditions in past years. The results will help you decide how hot, cold, wet, or windy it might be!

Date:

Astronomy

May. 04, 2012 Rise Set
Actual Time 6:28 AM MDT 8:22 PM MDT
Civil Twilight 6:00 AM MDT 8:50 PM MDT
Nautical Twilight 5:25 AM MDT 9:25 PM MDT
Astronomical Twilight 4:48 AM MDT 10:02 PM MDT
Moon 7:05 PM MDT (5/4) 5:10 AM MDT (5/4)
Length of Visible Light 14h 50m
Length of Day
13h 53m
Waxing Gibbous, 97% of the Moon is Illuminated
May 4
Waxing Gibbous
May 5
Full
May 12
Last Quarter
May 20
New
May 28
First Quarter

Hourly Weather History & Observations

Time (MDT) Temp. Windchill Dew Point Humidity Pressure Visibility Wind Dir Wind Speed Gust Speed Precip Events Conditions
12:53 AM 39.0 °F 35.7 °F 21.0 °F 49% 29.84 in 10.0 mi South 4.6 mph - N/A   Clear
1:53 AM 39.0 °F 35.7 °F 21.9 °F 50% 29.82 in 10.0 mi SW 4.6 mph - N/A   Clear
2:53 AM 45.0 °F 39.7 °F 25.0 °F 46% 29.80 in 10.0 mi SSW 10.4 mph - N/A   Clear
3:53 AM 41.0 °F 35.2 °F 25.0 °F 53% 29.82 in 10.0 mi South 9.2 mph - N/A   Clear
4:53 AM 32.0 °F 25.6 °F 23.0 °F 69% 29.86 in 10.0 mi South 6.9 mph - N/A   Clear
5:53 AM 28.9 °F 23.9 °F 21.9 °F 75% 29.87 in 10.0 mi SSW 4.6 mph - N/A   Clear
6:53 AM 34.0 °F 29.8 °F 24.1 °F 67% 29.87 in 10.0 mi Variable 4.6 mph - N/A   Clear
7:53 AM 48.0 °F - 28.0 °F 46% 29.83 in 10.0 mi SSE 10.4 mph - N/A   Clear
8:53 AM 50.0 °F - 27.0 °F 41% 29.86 in 10.0 mi SE 10.4 mph - N/A   Clear
9:53 AM 53.1 °F - 27.0 °F 37% 29.86 in 10.0 mi SE 8.1 mph - N/A   Clear
10:53 AM 59.0 °F - 27.0 °F 29% 29.87 in 10.0 mi SSE 8.1 mph 18.4 mph N/A   Clear
11:53 AM 63.0 °F - 24.1 °F 23% 29.86 in 10.0 mi SW 10.4 mph 27.6 mph N/A   Clear
12:53 PM 64.0 °F - 24.1 °F 22% 29.86 in 10.0 mi SSW 13.8 mph 25.3 mph N/A   Clear
1:53 PM 64.0 °F - 24.1 °F 22% 29.85 in 10.0 mi SW 15.0 mph 28.8 mph N/A   Clear
2:53 PM 68.0 °F - 23.0 °F 18% 29.79 in 10.0 mi SW 24.2 mph 28.8 mph N/A   Clear
3:25 PM 66.2 °F - 21.2 °F 18% 30.10 in 10.0 mi SSW 21.9 mph 31.1 mph N/A   Clear
3:53 PM 66.9 °F - 19.0 °F 16% 29.81 in 10.0 mi SSW 25.3 mph 34.5 mph N/A   Clear
4:53 PM 66.9 °F - 17.1 °F 15% 29.83 in 10.0 mi SW 23.0 mph 33.4 mph N/A   Clear
5:53 PM 64.9 °F - 12.0 °F 13% 29.86 in 10.0 mi SW 20.7 mph 28.8 mph N/A   Clear
6:53 PM 61.0 °F - 15.1 °F 17% 29.85 in 10.0 mi SSW 18.4 mph 28.8 mph N/A   Clear
7:53 PM 57.9 °F - 18.0 °F 21% 29.81 in 10.0 mi SW 11.5 mph - N/A   Clear
8:53 PM 52.0 °F - 18.0 °F 26% 29.83 in 10.0 mi WSW 9.2 mph - N/A   Clear
9:53 PM 43.0 °F 38.8 °F 19.0 °F 38% 29.88 in 10.0 mi SW 6.9 mph - N/A   Clear
10:53 PM 41.0 °F 37.1 °F 19.0 °F 41% 29.88 in 10.0 mi West 5.8 mph - N/A   Clear
11:53 PM 35.1 °F - 19.0 °F 52% 29.88 in 10.0 mi Calm Calm - N/A   Clear